Weather History for PAMR - November, 2011

Change the Weather History Date:

Thursday, November 3, 2011

  Actual Average Record
Temperature  
Mean Temperature 23 °F -  
Max Temperature 33 °F 31 °F 42 °F (2002)
Min Temperature 14 °F 21 °F 0 °F (1999)
Degree Days  
Heating Degree Days 42    
Moisture  
Dew Point 15 °F    
Average Humidity 72    
Maximum Humidity 85    
Minimum Humidity 55    
Precipitation  
Precipitation 0.00 in - - ()
Snow  
Snow 0.00 in - - ()
Snow Depth 2.00 in    
Sea Level Pressure  
Sea Level Pressure 29.81 in    
Wind  
Wind Speed 4 mph (NNW)    
Max Wind Speed 13 mph    
Max Gust Speed -    
Visibility 8 miles    
Events Snow    
Averages and records for this station are not official NWS values.
T = Trace of Precipitation, MM = Missing Value Source: NWS Daily Summary

Daily Weather History Graph

Daily Weather History Graph

Search for Another Location

Airport or City:

Trip Planner

Search our weather history database for the weather conditions in past years. The results will help you decide how hot, cold, wet, or windy it might be!

Date:

Astronomy

Nov. 03, 2011 Rise Set
Actual Time 9:32 AM AKDT 5:52 PM AKDT
Civil Twilight 8:44 AM AKDT 6:40 PM AKDT
Nautical Twilight 7:52 AM AKDT 7:31 PM AKDT
Astronomical Twilight 7:02 AM AKDT 8:21 PM AKDT
Moon 3:57 PM AKDT 1:06 AM AKDT
Length of Visible Light 9h 55m
Length of Day
8h 19m
First Quarter, 61% of the Moon is Illuminated
Nov 3
First Quarter
Nov 10
Full
Nov 18
Last Quarter
Nov 24
New
Dec 2
First Quarter

Hourly Weather History & Observations

Time (AKDT) Temp. Windchill Dew Point Humidity Pressure Visibility Wind Dir Wind Speed Gust Speed Precip Events Conditions
12:53 AM 15.1 °F - 6.1 °F 68% 30.22 in 10.0 mi Calm Calm - N/A   Scattered Clouds
1:53 AM 14.0 °F - 6.1 °F 71% 30.24 in 10.0 mi Calm Calm - N/A   Scattered Clouds
2:53 AM 16.0 °F 10.4 °F 5.0 °F 62% 30.23 in 10.0 mi NNE 3.5 mph - N/A   Mostly Cloudy
3:53 AM 17.1 °F 10.0 °F 6.1 °F 62% 30.18 in 10.0 mi East 4.6 mph - N/A   Mostly Cloudy
4:53 AM 17.1 °F - 7.0 °F 65% 30.17 in 10.0 mi Calm Calm - N/A   Mostly Cloudy
5:53 AM 18.0 °F 12.7 °F 8.1 °F 65% 30.13 in 10.0 mi East 3.5 mph - N/A   Overcast
6:53 AM 19.9 °F 14.9 °F 8.1 °F 60% 30.08 in 10.0 mi North 3.5 mph - N/A   Overcast
7:53 AM 21.9 °F - 9.0 °F 58% 30.04 in 10.0 mi Calm Calm - N/A   Mostly Cloudy
8:53 AM 21.9 °F - 10.0 °F 60% 30.01 in 10.0 mi Calm Calm - N/A   Clear
9:53 AM 23.0 °F - 12.0 °F 63% 29.96 in 10.0 mi Calm Calm - N/A   Overcast
10:53 AM 23.0 °F - 14.0 °F 68% 29.93 in 10.0 mi Calm Calm - N/A   Overcast
11:53 AM 23.0 °F 17.0 °F 10.0 °F 58% 29.89 in 10.0 mi North 4.6 mph - N/A   Overcast
12:53 PM 24.1 °F 19.7 °F 10.0 °F 55% 29.86 in 5.0 mi North 3.5 mph - N/A   Overcast
1:08 PM 24.8 °F 17.9 °F 12.2 °F 59% 29.85 in 3.0 mi North 5.8 mph - 0.00 in Snow Light Snow
1:44 PM 23.0 °F 13.1 °F 17.6 °F 80% 29.80 in 2.0 mi North 9.2 mph - 0.00 in Snow Light Snow
1:53 PM 23.0 °F 13.1 °F 18.0 °F 81% 29.80 in 2.0 mi NNW 9.2 mph - 0.00 in Snow Light Snow
2:03 PM 23.0 °F 13.9 °F 17.6 °F 80% 29.79 in 1.0 mi NNW 8.1 mph - 0.00 in Snow Light Snow
2:30 PM 24.8 °F 15.3 °F 19.4 °F 80% 29.75 in 3.0 mi North 9.2 mph - 0.00 in Snow Light Snow
2:53 PM 25.0 °F 16.3 °F 21.0 °F 85% 29.71 in 3.0 mi NNW 8.1 mph - 0.00 in Snow Light Snow
3:53 PM 27.0 °F 19.5 °F 21.9 °F 81% 29.60 in 10.0 mi WNW 6.9 mph - 0.00 in   Overcast
4:53 PM 32.0 °F 22.5 °F 25.0 °F 75% 29.59 in 8.0 mi WNW 12.7 mph - N/A   Overcast
5:53 PM 28.0 °F 24.2 °F 24.1 °F 85% 29.57 in 7.0 mi West 3.5 mph - N/A   Overcast
6:53 PM 26.1 °F 18.4 °F 21.9 °F 84% 29.51 in 10.0 mi NW 6.9 mph - N/A   Overcast
7:53 PM 26.1 °F 19.4 °F 21.9 °F 84% 29.45 in 10.0 mi NW 5.8 mph - N/A   Overcast
8:53 PM 30.9 °F 22.8 °F 26.1 °F 82% 29.39 in 10.0 mi West 9.2 mph - N/A   Overcast
9:53 PM 30.0 °F 21.7 °F 23.0 °F 75% 29.35 in 10.0 mi NNW 9.2 mph - N/A   Overcast
10:53 PM 28.0 °F 20.8 °F 21.9 °F 78% 29.33 in 10.0 mi NNW 6.9 mph - N/A   Overcast
11:53 PM 25.0 °F 15.5 °F 19.9 °F 81% 29.33 in 10.0 mi NW 9.2 mph - N/A   Overcast